Location: Lugrin
(46.4033°N, 6.6674°E)
Time: 16:07:36
(UTC+00:00)

N. Korean satellite - Visible Passes

Search period start: 25 November 2020 00:00
Search period end: 05 December 2020 00:00
Orbit: 452 x 504 km, 97.2° (Epoch: 24 November)

Date Brightness Start Highest point End Pass type
(mag) Time Alt. Az. Time Alt. Az. Time Alt. Az.
25 Nov 6.4 05:12:59 10° NNE 05:16:33 86° WNW 05:20:10 10° SSW visible
25 Nov 10.1 17:26:29 10° WSW 17:27:33 11° W 17:28:36 10° WNW visible
26 Nov 7.8 04:46:50 10° NNE 04:50:16 43° E 04:53:44 10° S visible
26 Nov 9.3 16:58:19 10° SSW 17:01:03 22° W 17:03:48 10° NW visible
27 Nov 9.2 04:21:02 10° NE 04:23:52 22° E 04:26:44 10° SE visible
27 Nov 7.5 05:54:07 10° N 05:57:13 27° WNW 06:00:19 10° SW visible
27 Nov 7.7 16:31:21 10° S 16:34:39 47° W 16:37:59 10° NNW visible
28 Nov 10.1 03:56:17 10° ENE 03:57:23 11° E 03:58:29 10° ESE visible
28 Nov 6.6 05:27:30 10° N 05:31:02 56° WNW 05:34:36 10° SSW visible
29 Nov 6.9 05:01:11 10° NNE 05:04:46 68° E 05:08:24 10° S visible
29 Nov 9.7 17:13:31 10° SW 17:15:36 15° W 17:17:43 10° NW visible
30 Nov 8.4 04:35:08 10° NNE 04:38:25 32° E 04:41:42 10° SSE visible
30 Nov 7.9 06:08:54 10° NNW 06:11:34 20° WNW 06:14:14 10° WSW visible
30 Nov 8.6 16:46:03 10° SSW 16:49:07 30° W 16:52:14 10° NNW visible
01 Dec 9.6 04:09:35 10° NE 04:11:57 16° E 04:14:20 10° SE visible
01 Dec 7.1 05:42:04 10° N 05:45:26 37° WNW 05:48:49 10° SW visible
01 Dec 6.9 16:19:20 10° S 16:22:44 68° W 16:26:12 10° NNW visible
02 Dec 6.4 05:15:34 10° N 05:19:12 79° WNW 05:22:51 10° SSW visible
02 Dec 10.2 17:29:31 10° W 17:30:08 10° W 17:30:45 10° WNW visible
03 Dec 7.6 04:49:19 10° NNE 04:52:52 48° E 04:56:25 10° S visible
03 Dec 9.4 17:00:54 10° SW 17:03:34 21° W 17:06:16 10° NW visible
04 Dec 9.0 04:23:26 10° NE 04:26:26 24° E 04:29:27 10° SSE visible
04 Dec 7.6 05:56:39 10° NNW 05:59:43 26° WNW 06:02:49 10° SW visible
04 Dec 7.9 16:33:49 10° S 16:37:06 43° W 16:40:27 10° NNW visible
